STARLINK-4029 (52685 NORAD) Tracking and Keplerian Element Data

This shows tracking and keplerian element data for the satellite.

Feedback or suggestion? Click here.




ElementValue
Catalog52685
NameSTARLINK-4029
Epoch Orbit894
Epoch Day193.25001157
Epoch Year2022
RAAN27.2095
Inclination53.2175
Eccentricity0.0001619
Argument of Perigee43.6837
Mean Anonmoly149.4288
Mean Motion15.53102531
Decay Rate-0.01063082
L11 52685U 22053AF 22193.25001157 -.01063082 00000+0 -18374-1 0 9991
L22 52685 53.2175 27.2095 0001619 43.6837 149.4288 15.53102531 8947

Live tracking and technical data element details for STARLINK-4029 (NORAD 52685). STARLINK-4029 can be tracked NOW for your location showing map with azimuth and elevation plus other details from your city location.

Track the satellite on the map from your city or location and see movement details for azimuth, elevation, latitude, longitude, range, height, and movement on the map or in text.







IsCatalogInMostPopularTable: catalog: 52685, numindb: 9
Update: records affected: 1



GetName: 52685 STARLINK-4029

Hit Count: updated at: Sun, 14 Aug 2022 00:17:29 GMT